Reflectivity
-20 -20 -20 -20 -20 -20 -20 -20 -20 -20 -20 -20 -20 -20 -20 -20 -20 -20 -20 -20 -20 -20 -20 -20 -20 -20 -20 -20 -20 -20 -20 -20 -20 -20 -20 -20 -20 -20 -20 -20 -20 -20 -20 -20 -20 -20 -20 -20 -20
-20 -20 -20 -20 -20 -20 -20 -20 -20 -20 -20 -20 -20 -20 -20 -20 -20 -20 -20 -20 -20 -20 -20 -20 -20 -20 -20 -20 -20 -20 -20 -20 -20 -20 -20 -20 -20 -20 -20 -20 -20 -20 -20 -20 -20 -20 -20 -20 -20
-20 -20 -20 -20 -20 -20 -20 -20 -20 -20 -20 -20 -20 -20 -20 -20 -20 -20 -20 -20 -20 -20 -20 -20 -20 -20 -20 -20 -20 -20 -20 -20 -20 -20 -20 -20 -20 -20 -20 -20 -20 -20 -20 -20 -20 -20 -20 -20 -20
-20 -20 -20 -20 -20 -20 -20 -20 -20 -20 -20 -20 -20 -20 -20 -20 -20 -20 -20 -20 -20 -20 -20 -20 -20 -20 -20 -20 -20 -20 -20 -20 -20 -20 -20 -20 -20 -20 -20 -20 -20 -20 -20 -20 -20 -20 -20 -20 -20
-20 -20 -20 -20 -20 -20 -20 -20 -20 -20 -20 -20 -20 -20 -20 -20 -20 -20 -20 -20 -20 -20 -20 -20 -20 -20 -20 -20 -20 -20 -20 -20 -20 -20 -20 -20 -20 -20 -20 -20 -20 -20 -20 -20 -20 -20 -20 -20 -20
-20 -20 -20 -20 -20 -20 -20 -20 -20 -20 -20 -20 -20 -20 -20 -20 -20 -20 -20 -20 -20 -20 -20 -20 -20 -20 -20 -20 -20 -20 -20 -20 -20 -20 -20 -20 -20 -20 -20 -20 -20 -20 -20 -20 -20 -20 -20 -20 -20
-20 -20 -20 -20 -20 -20 -20 -20 -20 -20 -20 -20 -20 -20 -20 -20 -20 -20 -20 -20 -20 -20 -20 -20 -20 -20 -20 -20 -20 -20 -20 -20 -20 -20 -20 -20 -20 -20 -20 -20 -20 -20 -20 -20 -20 -20 -20 -20 -20
-20 -20 -20 -20 -20 -20 -20 -20 -20 -20 -20 -20 -20 -20 -20 -20 -20 -20 -20 -20 -20 -20 -20 -20 -20 -20 -20 -20 -20 -20 -20 -20 -20 -20 -20 -20 -20 -20 -20 -20 -20 -20 -20 -20 -20 -20 -20 -20 -20
-20 -20 -20 -20 -20 -20 -20 -20 -20 -20 -20 -20 -20 -20 -20 -20 -20 -20 -20 -20 -20 -20 -20 -20 -20 -20 -20 -20 -20 -20 -20 -20 -20 -20 -20 -20 -20 -20 -20 -20 -20 -20 -20 -20 -20 -20 -20 -20 -20
-20 -20 -20 -20 -20 -20 -20 -20 -20 -20 -20 -20 -20 -20 -20 -20 -20 -20 -20 -20 -20 -20 -20 -20 -20 -20 -20 -20 -20 -20 -20 -20 -20 -20 -20 -20 -20 -20 -20 -20 -20 -20 -20 -20 -20 -20 -20 -20 -20
-20 -20 -20 -20 -20 -20 -20 -20 -20 -20 -20 -20 -20 -20 -20 -20 -20 -20 -20 -20 -20 -20 -20 -20 -20 -20 -20 -20 -20 -20 -20 -20 -20 2 -20 -20 -16 -17 -20 -20 -20 -20 -20 -20 -20 -20 -20 -20 -20
-20 -20 -20 -20 -20 -20 -20 -20 -20 -20 -20 -20 -20 -20 -20 -20 -20 -20 -20 -20 -20 -20 -20 -20 -20 -20 -20 -20 -20 -20 -20 -20 -20 -6 -3 10 -12 -4 -18 -20 -20 -20 -20 -20 -20 -20 -20 -20 -20
-20 -20 -20 -20 -20 -20 -20 -20 -20 -20 -20 -20 -20 -20 -20 -20 -20 -20 -20 -20 -20 -20 -20 -20 -20 -20 -20 -20 -20 -20 7 -3 -20 -20 -20 -20 -5 5 -20 -19 -20 -20 -20 -20 -20 -20 -20 -20 -20
-20 -20 -20 -20 -20 -20 -20 -20 -20 -20 -20 -20 -20 -20 -20 -20 -20 -20 -20 -20 -20 -20 -20 -20 -20 -20 -20 -20 -20 -20 -20 -9 -0 -20 -20 -18 -20 -20 -20 -20 -20 -20 -20 -20 -20 -20 -20 -20 -20
-20 -20 -20 -20 -20 -20 -20 -20 -20 -20 -20 -20 -20 -20 -20 -20 -20 -20 -20 -20 -20 -20 -20 -20 -20 -20 -20 -20 -20 -20 -20 -20 -9 13 23 4 29 -6 -20 -20 -20 -20 -12 -20 -13 -4 -20 -20 -20
-20 -20 -20 -20 -20 -20 -20 -20 -20 -20 -20 -20 -20 -20 -20 -20 -20 -20 -20 -20 -20 -20 -20 -20 -20 -20 -20 -20 -20 -20 -20 -20 -20 21 -9 26 7 16 22 0 -17 -19 -3 29 18 30 22 -7 -12
-20 -20 -20 -20 -20 -20 -20 -20 -20 -20 -20 -20 -20 -20 -20 -20 -20 -20 -20 -20 -20 -20 -20 -20 -20 -20 -20 -20 -20 -20 -20 -20 -20 -20 -20 -20 14 26 27 22 23 -2 9 34 31 34 21 17 20
-20 -20 -20 -20 -20 -20 -20 -20 -20 -20 -20 -20 -20 -20 -20 -20 -20 -20 -20 -20 -20 -20 -20 -20 -20 -20 -20 -20 -20 -20 -20 -20 -20 -20 -20 -20 -20 -20 -9 22 27 11 25 11 39 36 29 30 32
-20 -20 -20 -20 -20 -20 -20 -20 -20 -20 -20 -20 -20 -20 -20 -20 -20 -20 -20 -20 -20 -20 -20 -20 -20 -20 -20 -20 -20 -20 -20 -20 -20 -20 -20 -20 -20 -20 -20 -20 0 -20 -7 18 34 30 -20 -10 44
-20 -20 -20 -20 -20 -20 -20 -20 -20 -20 -20 -20 -20 -20 -20 -20 -20 -20 -20 -20 -20 -20 -20 -20 -20 -20 -20 -20 -20 -20 -20 -20 -20 -20 -20 -20 -20 -20 -20 -20 -20 -20 -20 -20 8 10 1 17 -20
-20 -20 -20 -20 -20 -20 -20 -20 -20 -20 -20 -20 -20 -20 -20 -20 -20 -20 -20 -20 -17 -12 -20 -14 -11 -20 -20 -20 -20 -20 -20 -20 -20 -20 -20 -20 -20 -20 -20 -20 -20 -20 -20 -20 -20 9 5 -5 4
-20 -20 -20 -20 -20 -20 -20 -20 -20 -20 -20 -20 -20 -20 -20 -20 -20 -20 -20 -20 -2 25 1 14 -15 -20 -20 -20 -20 -20 -20 -20 -20 -20 -20 -20 -20 -20 -20 -20 -20 -20 -20 -20 -20 -20 14 11 -11
-20 -20 -20 -20 -20 -20 -20 -20 -20 -20 -20 -13 -20 -20 -20 -20 -15 -6 22 20 2 7 33 20 -3 -20 -20 -20 -20 -20 -20 -20 -20 -20 -20 -20 -20 -20 -20 -20 -20 -5 -12 -20 -19 -20 -20 9 -1
-20 -20 -20 -20 -20 -20 -20 -20 -20 -0 -4 -20 16 11 -19 -13 17 10 10 9 -19 22 13 18 7 -20 -19 -16 -20 -20 -20 -16 -10 -20 -20 -20 -20 -20 -20 -20 -20 -20 -20 -20 -20 -2 5 12 -7
-20 -18 2 -20 -20 -20 -20 -20 -8 10 -4 -4 15 27 31 16 19 31 28 21 26 33 34 18 8 -17 4 -20 -20 -20 -2 -20 16 12 5 -14 -19 -20 -20 -20 -20 -20 -20 -7 -20 -20 -9 10 6
-20 -19 -20 -20 -20 -20 -20 -20 -20 1 -2 -19 3 28 29 37 36 31 30 23 18 14 28 1 -18 -1 -20 -20 -20 -20 6 -20 -7 -16 -18 -5 -16 -18 -20 -20 -20 -18 -20 -20 -9 9 -8 -9 16
-20 -20 -20 -17 -19 -20 -20 -9 8 5 -19 -20 -14 -7 16 35 32 32 42 37 21 16 8 -12 -13 -16 -20 -20 -20 -20 -20 -18 -3 5 -20 -17 -20 -11 -2 -20 -20 -20 7 -3 4 13 6 -5 6
-20 -20 -20 -17 -20 -14 -20 -20 -20 -20 18 24 21 26 23 20 15 17 29 30 30 18 16 8 9 -1 -20 -17 -20 -20 -20 -20 -20 -17 -4 -11 -20 -20 -20 -20 -20 -20 -20 1 14 11 -4 1 17
-20 -20 -20 -20 -20 -20 -20 -20 -20 -20 -18 -12 -8 -1 4 15 18 26 28 33 29 31 29 26 25 17 8 5 -20 -20 -9 -20 -20 -16 -20 -3 -6 -20 -20 -20 -20 -20 -20 -20 -9 2 -1 9 -16
-14 -20 1 -20 -20 -20 -20 -20 -20 -20 -14 -20 -20 -20 -20 -18 -13 10 16 18 20 16 13 -1 -18 -0 -19 -20 -20 -20 -18 -20 -20 -20 -20 -20 -20 -20 -20 -20 -20 -20 -20 -20 -20 -11 -20 22 -20
Wind_Speed
5 6 0 5 5 6 3 6 3 8 9 3 5 1 5 3 5 5 3 2 6 8 9 9 11 11 9 9 8 8 12 14 13 14 14 15 16 17 17 16 16 16 15 16 15 14 13 11 10
4 1 5 3 6 4 6 4 2 5 6 10 7 2 2 3 1 3 3 5 6 8 8 10 12 13 12 10 10 9 10 12 13 13 13 14 15 16 17 16 16 16 15 15 15 14 12 10 10
0 4 4 5 3 5 5 2 6 13 9 2 7 3 4 4 1 6 4 8 8 7 7 7 13 13 13 12 12 11 10 10 11 13 14 13 15 16 16 15 15 15 15 15 14 13 11 10 10
3 5 5 4 5 6 5 5 7 11 10 3 4 2 3 2 5 6 4 8 8 7 7 9 10 11 14 13 11 11 12 11 11 11 14 14 14 15 15 14 14 15 15 14 13 12 11 10 9
5 3 2 2 5 5 2 5 6 9 8 6 1 2 1 5 4 7 6 5 7 6 6 10 12 10 10 12 13 12 11 11 12 12 12 13 14 13 14 14 13 13 14 14 13 11 11 10 10
5 4 4 3 5 4 3 5 5 7 9 11 12 3 3 6 2 3 4 5 4 8 6 7 12 12 12 11 11 11 11 11 12 12 12 13 13 13 13 13 13 12 11 11 11 11 10 10 10
6 4 3 3 6 5 2 5 5 6 8 8 9 4 4 3 5 5 5 5 4 5 6 6 7 9 10 10 10 11 12 12 12 12 11 11 10 11 12 13 13 12 10 10 10 10 10 10 10
6 5 2 4 4 7 1 5 3 6 14 7 4 5 5 6 8 5 5 5 5 5 5 5 5 5 6 6 10 10 11 12 12 12 12 11 10 11 11 11 12 12 11 10 11 10 10 10 10
3 5 2 5 4 5 4 7 3 5 6 5 4 2 6 3 6 4 3 0 2 2 4 4 5 5 5 4 6 8 10 10 10 9 10 8 6 7 8 9 10 12 12 11 11 10 10 9 10
5 5 10 7 3 5 13 6 8 5 8 5 6 9 2 4 5 6 7 7 6 6 7 7 7 5 4 3 4 4 3 3 4 5 5 6 9 6 6 7 10 11 11 11 9 9 10 8 4
3 5 5 4 7 6 6 11 4 2 4 5 9 11 11 4 8 9 9 8 8 8 4 8 7 7 6 3 2 2 2 2 3 6 8 7 6 5 7 5 4 4 8 4 6 5 4 6 5
3 5 4 5 7 6 9 8 9 8 10 8 9 11 7 12 8 8 10 10 7 8 7 4 5 5 6 4 3 2 3 4 3 4 4 4 4 5 7 6 7 7 4 7 6 5 6 7 6
5 2 6 9 9 9 8 7 12 13 14 8 10 9 11 10 11 10 11 3 4 3 5 7 7 5 3 4 2 2 2 1 1 3 5 6 6 6 8 7 7 7 6 6 6 7 7 7 7
3 4 7 6 12 9 16 11 5 8 15 10 8 9 7 8 12 11 9 6 5 8 9 7 9 9 8 6 6 4 4 3 1 1 3 5 5 5 5 7 8 7 5 6 7 9 9 9 8
4 6 6 8 6 7 8 7 8 9 7 9 14 10 9 10 10 11 12 7 6 7 8 9 9 8 10 7 6 5 4 5 5 4 7 6 6 7 6 5 6 7 7 9 7 6 6 6 7
5 4 1 5 3 5 2 6 10 4 15 16 8 9 15 14 11 14 6 7 7 7 9 8 8 9 9 7 5 4 4 4 4 4 4 6 9 11 6 7 7 8 7 7 7 7 8 8 8
3 3 4 6 5 4 4 16 3 16 13 15 11 11 8 11 8 8 10 8 7 6 8 9 8 9 7 6 4 5 6 5 4 3 3 5 5 7 8 9 7 8 7 6 3 6 8 7 8
6 5 3 2 6 8 11 26 16 7 7 11 14 11 9 4 6 8 12 11 10 8 8 10 9 8 6 4 3 4 5 4 4 4 4 5 4 5 4 5 8 8 5 6 12 12 8 4 9
3 4 5 5 9 8 15 23 20 6 7 16 19 11 7 7 6 10 12 10 8 9 10 10 11 10 8 5 3 2 4 3 5 4 8 8 7 8 7 5 5 7 8 6 7 7 10 9 10
9 12 13 6 10 7 11 23 19 6 9 14 16 6 7 7 8 11 11 12 10 8 9 10 10 10 7 5 3 4 2 2 2 4 7 7 10 9 8 6 6 5 6 9 6 7 5 5 7
11 10 11 14 2 5 6 15 7 14 6 8 9 7 8 12 12 11 12 12 11 11 11 11 10 9 10 9 6 4 3 3 3 7 6 8 10 10 9 8 6 6 4 5 7 7 11 8 3
9 7 6 4 5 2 3 11 15 9 11 14 13 17 16 14 14 12 12 13 13 11 10 11 11 12 12 12 8 7 4 4 4 7 8 9 9 9 9 9 7 7 6 7 7 7 8 8 7
9 5 3 1 1 2 5 2 7 10 10 10 10 14 15 15 13 12 10 10 12 13 9 9 12 14 13 11 10 6 7 6 6 7 11 10 9 11 10 11 12 11 8 8 8 10 11 10 10
6 3 3 4 3 2 6 8 4 8 9 12 9 14 16 16 14 14 13 11 12 11 9 11 11 13 12 12 12 10 11 10 9 10 8 8 8 9 10 11 10 11 10 9 9 11 13 13 11
3 5 2 3 1 6 2 2 3 6 10 19 16 16 16 15 15 14 15 15 12 11 14 10 12 11 11 12 12 13 12 11 11 10 8 12 8 8 10 12 12 10 12 12 11 11 13 14 12
7 8 5 6 3 3 5 5 2 4 8 14 13 12 10 11 10 11 13 12 12 11 8 9 11 10 12 12 12 11 11 7 7 9 9 8 8 9 12 11 12 14 14 13 13 10 11 14 11
5 4 2 3 2 1 4 4 5 5 5 7 8 8 9 7 5 8 9 10 11 11 13 14 13 11 14 13 10 10 10 11 11 12 10 8 10 11 12 13 12 13 13 13 14 11 11 13 13
7 9 4 1 4 5 4 4 5 7 4 4 4 4 4 6 9 9 10 11 11 12 11 14 13 14 13 12 10 10 10 10 10 10 11 12 12 13 13 13 13 13 13 13 14 14 12 13 11
3 3 1 4 4 5 2 5 6 9 9 9 6 6 4 5 7 8 7 8 8 9 10 10 11 12 12 10 11 9 10 11 12 11 11 12 13 13 14 14 14 14 14 14 14 15 15 13 13
11 10 7 6 5 4 4 6 7 10 11 9 8 9 8 6 6 6 7 7 8 9 11 11 12 13 11 11 11 12 12 11 11 13 13 13 13 14 14 14 14 15 15 15 15 16 16 14 13
Wind_Direction
324 311 350 44 53 62 283 264 266 326 339 308 292 67 137 118 166 210 262 166 131 146 155 165 163 149 140 134 127 128 133 131 133 135 138 137 136 138 139 142 144 147 150 154 156 155 151 140 127
324 1 36 76 88 68 271 258 242 286 267 316 303 92 27 74 119 146 139 178 152 154 162 166 166 154 150 148 144 141 142 141 143 143 143 145 144 146 148 148 149 151 154 159 159 157 155 143 138
253 45 78 83 101 175 222 236 298 318 314 291 306 66 109 163 177 180 214 152 137 151 164 170 166 161 159 160 160 155 150 149 150 152 152 154 154 154 153 152 153 155 155 161 165 162 152 148 150
55 17 34 97 227 252 220 325 335 320 313 238 222 155 83 244 189 189 166 143 149 160 165 161 170 169 164 166 167 167 162 162 165 165 162 162 162 161 158 159 160 160 160 162 166 164 159 159 160
34 54 55 340 264 263 307 282 310 319 298 266 253 235 77 355 349 129 160 155 167 168 168 164 164 168 174 171 171 176 176 173 173 179 174 170 168 168 165 165 168 168 167 167 168 170 166 162 164
43 92 59 268 273 280 296 283 309 0 342 326 353 24 309 310 359 212 173 166 163 160 160 163 172 174 177 175 177 178 180 184 185 186 183 181 178 174 174 173 174 176 173 173 173 170 170 171 171
113 86 195 240 269 312 145 346 25 345 344 326 313 344 295 288 236 217 205 144 143 157 152 158 174 180 178 183 184 184 185 188 191 190 190 191 186 183 183 184 182 183 183 179 177 176 176 177 177
107 92 169 236 237 280 222 6 296 31 310 303 32 27 312 263 224 206 183 178 163 164 158 166 168 174 183 185 188 190 195 194 192 192 192 191 194 194 195 191 191 186 190 188 186 183 183 180 182
113 70 199 252 218 251 303 339 279 236 265 341 272 208 276 13 3 337 353 287 147 167 177 178 177 188 180 188 196 200 202 200 197 195 197 192 202 204 205 200 197 191 193 194 192 188 187 185 187
112 134 209 217 239 275 304 301 310 311 307 282 307 310 224 271 250 269 266 221 216 204 203 184 177 174 168 182 192 189 204 199 209 204 196 201 211 207 204 208 207 203 198 197 197 193 192 179 193
178 201 218 252 269 303 296 311 338 282 286 267 295 307 311 204 254 246 255 237 218 214 198 187 170 162 168 174 183 198 169 161 202 218 214 216 213 213 213 213 211 202 204 190 201 198 198 189 189
314 264 291 283 325 307 307 300 297 220 240 254 264 268 293 302 290 252 246 249 208 204 225 139 131 151 160 149 182 217 209 173 185 206 215 213 219 217 223 218 215 207 189 193 186 195 198 196 194
203 281 320 313 308 288 277 266 271 270 272 261 259 265 270 273 274 267 244 255 241 162 98 100 103 105 113 96 83 182 209 243 259 202 204 214 221 228 229 226 220 213 188 193 193 194 194 199 198
301 331 307 292 291 297 286 285 2 277 305 308 320 312 295 281 277 285 271 206 134 120 105 102 90 86 85 76 73 61 41 27 334 257 245 244 244 238 227 232 232 227 196 198 196 200 200 203 201
321 326 319 265 284 270 324 311 222 293 0 344 332 333 338 334 316 284 279 152 128 108 111 93 80 76 77 74 63 58 44 42 45 15 357 312 265 247 233 232 227 216 202 194 196 194 189 200 205
357 32 349 290 302 283 23 234 323 351 345 326 324 326 330 325 303 301 147 116 100 103 83 70 77 69 67 62 58 53 45 56 51 15 359 0 336 333 281 240 232 229 215 204 202 211 200 205 209
333 230 206 311 296 312 347 293 301 334 336 310 309 308 310 299 346 27 44 34 74 63 87 77 66 66 68 58 73 70 63 44 35 45 24 355 328 317 318 317 266 248 230 210 224 235 216 195 215
215 185 209 220 295 322 279 277 288 317 282 289 282 293 287 342 83 67 56 44 17 28 54 72 63 49 48 66 64 53 60 26 38 14 20 4 351 358 331 305 312 292 247 235 204 220 223 192 232
302 253 222 236 257 284 265 276 291 315 295 285 287 299 272 104 78 68 65 51 40 22 33 46 55 37 32 16 17 41 46 348 10 14 2 353 0 351 343 338 332 330 314 256 233 239 238 212 210
268 282 284 254 251 234 279 282 297 324 267 270 280 266 168 126 86 67 64 65 34 31 29 37 57 54 50 47 25 44 355 320 324 15 354 359 346 339 331 331 321 313 314 320 276 224 239 236 195
243 253 275 276 260 247 318 290 334 333 322 304 284 277 179 144 115 88 67 56 39 25 26 28 35 50 45 44 34 355 23 339 350 3 352 347 334 331 324 318 309 301 282 277 294 270 228 243 243
252 232 247 274 30 280 71 292 334 343 26 8 14 27 57 73 70 64 60 51 52 22 16 22 21 26 35 31 42 41 50 7 346 324 322 333 329 324 324 315 306 296 293 283 278 278 252 228 225
257 174 213 233 104 343 196 209 284 4 360 11 51 60 55 60 56 62 62 56 48 32 358 19 19 29 25 20 28 34 28 1 338 336 329 331 333 324 322 322 320 314 301 289 271 269 264 237 235
135 109 49 35 82 301 222 175 313 12 339 337 72 62 72 68 52 44 37 39 42 47 357 21 15 26 19 21 21 15 20 1 347 346 333 332 328 323 320 319 314 301 296 282 287 279 268 247 222
117 137 270 295 255 238 263 158 56 22 16 42 53 49 40 40 55 32 22 19 19 18 18 9 17 18 18 23 12 15 7 359 344 344 329 329 325 325 321 322 313 309 298 293 285 271 274 265 224
184 166 190 230 211 276 324 254 99 82 85 89 84 76 55 34 22 54 32 12 4 9 1 12 16 13 21 23 15 14 2 349 332 342 335 322 322 318 313 312 307 299 295 294 281 264 263 260 238
192 188 208 96 168 47 215 117 144 137 112 92 96 100 108 104 42 34 34 14 356 358 10 15 4 6 24 19 8 6 1 354 348 343 336 329 322 317 324 317 314 313 307 293 282 271 253 251 242
177 159 95 98 208 228 242 196 182 176 172 131 115 90 84 80 54 42 26 9 351 359 358 11 4 10 10 9 6 4 351 353 353 350 348 343 331 325 322 328 331 322 322 314 309 297 249 244 247
152 189 162 131 171 195 260 248 185 163 177 175 163 124 86 56 72 58 42 3 356 355 360 8 6 10 8 5 8 1 3 4 4 359 356 350 342 336 341 337 332 332 332 331 317 309 271 241 239
202 185 168 144 204 218 147 263 153 167 180 169 153 126 113 93 70 54 38 11 0 354 6 6 10 13 5 360 3 9 9 4 8 8 3 3 354 351 350 344 342 343 338 336 328 318 312 257 235